Marshall, TX

5:33 AM CST on December 06, 2019 (GMT -0600)
Harrison County

Weather History for KASL - October, 2019

Change the Weather History Date:

Wednesday, October 9, 2019

  Actual Average (KGGG) Record (KGGG)
Temperature  
Mean Temperature 70 °F -  
Max Temperature 85 °F 76 °F 96 °F (1939)
Min Temperature 54 °F 55 °F 36 °F (1917)
Cooling Degree Days 4    
Growing Degree Days 20 (Base 50)    
Moisture  
Dew Point 59 °F    
Average Humidity 76    
Maximum Humidity 94    
Minimum Humidity 47    
Precipitation  
Precipitation 0.00 in - - ()
Sea Level Pressure  
Sea Level Pressure 29.98 in    
Wind  
Wind Speed 2 mph (SSE)    
Max Wind Speed 9 mph    
Max Gust Speed -    
Visibility 10 miles    
Events      
Averages and records for this station are not official NWS values.
T = Trace of Precipitation, MM = Missing Value Source: NWS Daily Summary

Daily Weather History Graph

Daily Weather History Graph

Search for Another Location

Airport or City:

Astronomy

Oct. 09, 2019 Rise Set
Actual Time 7:16 AM CDT 6:51 PM CDT
Civil Twilight 6:52 AM CDT 7:16 PM CDT
Nautical Twilight 6:23 AM CDT 7:44 PM CDT
Astronomical Twilight 5:55 AM CDT 8:13 PM CDT
Moon 5:07 PM CDT (10/9) 3:22 AM CDT (10/9)
Length of Visible Light 12h 24m
Length of Day
11h 35m
Waxing Gibbous, 85% of the Moon is Illuminated
Oct 9
Waxing Gibbous
Oct 13
Full
Oct 21
Last Quarter
Oct 27
New
Nov 4
First Quarter

Hourly Weather History & Observations

Time (CDT) Temp. Heat Index Dew Point Humidity Pressure Visibility Wind Dir Wind Speed Gust Speed Precip Events Conditions
12:15 AM 57.7 °F - 53.4 °F 85% 30.03 in 10.0 mi Calm Calm - N/A   Clear
12:35 AM 58.5 °F - 53.4 °F 83% 30.03 in 10.0 mi Calm Calm - N/A   Clear
12:55 AM 57.4 °F - 53.6 °F 87% 30.03 in 10.0 mi Calm Calm - N/A   Clear
1:20 AM 57.4 °F - 54.3 °F 90% 30.03 in 10.0 mi Calm Calm - N/A   Mostly Cloudy
1:35 AM 56.3 °F - 53.6 °F 91% 30.02 in 10.0 mi Calm Calm - N/A   Scattered Clouds
1:55 AM 56.3 °F - 53.8 °F 91% 30.02 in 10.0 mi Calm Calm - N/A   Clear
2:15 AM 55.9 °F - 53.8 °F 92% 30.02 in 10.0 mi Calm Calm - N/A   Clear
2:35 AM 56.3 °F - 54.0 °F 92% 30.03 in 10.0 mi Calm Calm - N/A   Mostly Cloudy
2:55 AM 56.3 °F - 54.0 °F 92% 30.02 in 10.0 mi Calm Calm - N/A   Overcast
3:15 AM 54.9 °F - 52.7 °F 92% 30.02 in 10.0 mi Calm Calm - N/A   Mostly Cloudy
3:35 AM 54.9 °F - 52.7 °F 92% 30.02 in 10.0 mi Calm Calm - N/A   Scattered Clouds
3:55 AM 54.9 °F - 52.9 °F 93% 30.02 in 10.0 mi Calm Calm - N/A   Mostly Cloudy
4:15 AM 54.9 °F - 52.9 °F 93% 30.02 in 10.0 mi Calm Calm - N/A   Mostly Cloudy
4:35 AM 56.3 °F - 54.3 °F 93% 30.03 in 10.0 mi Calm Calm - N/A   Overcast
4:55 AM 56.3 °F - 54.1 °F 92% 30.03 in 10.0 mi Calm Calm - N/A   Mostly Cloudy
5:15 AM 56.3 °F - 54.1 °F 92% 30.03 in 10.0 mi Calm Calm - N/A   Mostly Cloudy
5:35 AM 54.9 °F - 53.1 °F 94% 30.03 in 10.0 mi Calm Calm - N/A   Scattered Clouds
5:55 AM 54.9 °F - 53.1 °F 94% 30.03 in 10.0 mi Calm Calm - N/A   Scattered Clouds
6:15 AM 54.9 °F - 53.1 °F 94% 30.02 in 10.0 mi Calm Calm - N/A   Clear
6:35 AM 56.3 °F - 54.5 °F 94% 30.03 in 10.0 mi Calm Calm - N/A   Clear
6:55 AM 54.9 °F - 52.9 °F 93% 30.03 in 10.0 mi Calm Calm - N/A   Clear
7:20 AM 54.9 °F - 53.1 °F 94% 30.03 in 7.0 mi Calm Calm - N/A   Clear
7:35 AM 55.0 °F - 53.2 °F 94% 30.04 in 10.0 mi Calm Calm - N/A   Clear
7:55 AM 56.3 °F - 54.5 °F 94% 30.04 in 7.0 mi Calm Calm - N/A   Clear
8:35 AM 61.5 °F - 59.4 °F 93% 30.04 in 10.0 mi Calm Calm - N/A   Clear
8:55 AM 64.9 °F - 61.9 °F 90% 30.05 in 10.0 mi Calm Calm - N/A   Clear
9:15 AM 64.9 °F - 61.2 °F 88% 30.05 in 10.0 mi SE 4.6 mph - N/A   Clear
9:35 AM 67.5 °F - 62.4 °F 84% 30.05 in 10.0 mi SSE 5.8 mph - N/A   Clear
9:55 AM 70.0 °F - 64.0 °F 81% 30.05 in 10.0 mi South 6.9 mph - N/A   Clear
10:15 AM 70.3 °F - 62.6 °F 76% 30.05 in 10.0 mi SE 4.6 mph - N/A   Clear
10:35 AM 72.5 °F - 63.0 °F 72% 30.05 in 10.0 mi South 8.1 mph - N/A   Clear
10:55 AM 75.2 °F - 64.2 °F 69% 30.05 in 10.0 mi SSE 8.1 mph - N/A   Clear
11:15 AM 75.2 °F - 63.3 °F 66% 30.04 in 10.0 mi South 9.2 mph - N/A   Clear
11:35 AM 75.7 °F - 62.1 °F 62% 30.04 in 10.0 mi SSE 5.8 mph - N/A   Clear
11:55 AM 76.3 °F - 61.5 °F 60% 30.04 in 10.0 mi South 8.1 mph - N/A   Scattered Clouds
12:15 PM 77.4 °F - 61.2 °F 57% 30.03 in 10.0 mi SSE 6.9 mph - N/A   Scattered Clouds
12:35 PM 77.9 °F - 58.8 °F 52% 30.01 in 10.0 mi SSW 5.8 mph - N/A   Scattered Clouds
1:15 PM 79.0 °F - 61.0 °F 54% 30.00 in 10.0 mi SSW 9.2 mph - N/A   Mostly Cloudy
1:35 PM 78.4 °F - 59.7 °F 52% 29.98 in 10.0 mi South 8.1 mph - N/A   Scattered Clouds
1:55 PM 79.7 °F - 59.0 °F 49% 29.97 in 10.0 mi South 9.2 mph - N/A   Clear
2:15 PM 82.0 °F 82.5 °F 60.6 °F 48% 29.96 in 10.0 mi SSW 3.5 mph - N/A   Clear
2:35 PM 82.4 °F 83.2 °F 61.9 °F 50% 29.95 in 10.0 mi South 6.9 mph - N/A   Clear
2:55 PM 82.4 °F 83.2 °F 61.9 °F 50% 29.94 in 10.0 mi South 4.6 mph - N/A   Clear
3:15 PM 82.4 °F 82.9 °F 60.8 °F 48% 29.93 in 10.0 mi South 8.1 mph - N/A   Clear
3:35 PM 82.4 °F 82.9 °F 60.6 °F 48% 29.93 in 10.0 mi South 6.9 mph - N/A   Clear
3:55 PM 84.4 °F 85.2 °F 62.6 °F 48% 29.93 in 10.0 mi South 9.2 mph - N/A   Clear
4:15 PM 85.1 °F 85.9 °F 62.6 °F 47% 29.92 in 10.0 mi South 8.1 mph - N/A   Clear
4:35 PM 82.9 °F 83.5 °F 61.5 °F 48% 29.91 in 10.0 mi South 8.1 mph - N/A   Clear
4:55 PM 82.4 °F 83.0 °F 61.5 °F 49% 29.91 in 10.0 mi South 8.1 mph - N/A   Scattered Clouds
5:15 PM 82.4 °F 83.4 °F 62.4 °F 51% 29.91 in 10.0 mi SSE 8.1 mph - N/A   Clear
5:35 PM 79.9 °F - 61.5 °F 53% 29.90 in 10.0 mi SE 3.5 mph - N/A   Clear
5:55 PM 79.3 °F - 61.7 °F 55% 29.90 in 10.0 mi SSE 4.6 mph - N/A   Clear
6:15 PM 78.1 °F - 61.7 °F 57% 29.91 in 10.0 mi SSE 3.5 mph - N/A   Clear
6:35 PM 77.0 °F - 62.4 °F 61% 29.91 in 10.0 mi Calm Calm - N/A   Clear
6:55 PM 75.2 °F - 62.8 °F 65% 29.91 in 10.0 mi Calm Calm - N/A   Clear
7:15 PM 74.5 °F - 64.0 °F 70% 29.91 in 10.0 mi Calm Calm - N/A   Clear
7:35 PM 72.5 °F - 63.5 °F 73% 29.91 in 10.0 mi Calm Calm - N/A   Clear
7:55 PM 72.5 °F - 64.9 °F 77% 29.91 in 10.0 mi Calm Calm - N/A   Clear
8:15 PM 70.5 °F - 63.9 °F 79% 29.92 in 10.0 mi Calm Calm - N/A   Clear
8:35 PM 70.0 °F - 63.5 °F 80% 29.92 in 10.0 mi Calm Calm - N/A   Clear
8:55 PM 70.0 °F - 64.0 °F 81% 29.93 in 10.0 mi Calm Calm - N/A   Clear
9:15 PM 70.0 °F - 64.0 °F 81% 29.93 in 10.0 mi Calm Calm - N/A   Clear
9:35 PM 70.0 °F - 64.4 °F 82% 29.93 in 10.0 mi SSE 3.5 mph - N/A   Clear
9:55 PM 70.0 °F - 64.4 °F 82% 29.93 in 10.0 mi Calm Calm - N/A   Clear
10:15 PM 70.0 °F - 64.2 °F 82% 29.93 in 10.0 mi SSE 3.5 mph - N/A   Clear
10:35 PM 70.0 °F - 64.2 °F 82% 29.94 in 10.0 mi South 3.5 mph - N/A   Clear
10:55 PM 70.0 °F - 64.6 °F 83% 29.94 in 10.0 mi SSE 3.5 mph - N/A   Clear
11:15 PM 70.0 °F - 65.3 °F 85% 29.94 in 10.0 mi SSE 4.6 mph - N/A   Clear
11:35 PM 70.0 °F - 65.3 °F 85% 29.95 in 10.0 mi SSE 3.5 mph - N/A   Clear
11:55 PM 70.0 °F - 65.8 °F 87% 29.95 in 10.0 mi South 3.5 mph - N/A   Clear